owner,sensor,date,latitude,longitude,vertical_datum,direction_of_sea_water_velocity,sea_water_speed,upward_sea_water_velocity,qcFlag 
TABS,ioos:station:wmo:42048:1,2012-02-01T00:00:00Z,27.9396,-96.8429,2.0,227.4539175,27.90681816,-99999.0,'11111222,11111222,99999999' 
TABS,ioos:station:wmo:42048:1,2012-02-01T00:30:00Z,27.9396,-96.8429,2.0,233.2348811,26.16404403,-99999.0,'11111222,11111222,99999999' 
TABS,ioos:station:wmo:42048:1,2012-02-01T01:00:00Z,27.9396,-96.8429,2.0,227.0294874,25.9529613,-99999.0,'11111222,11111222,99999999' 
TABS,ioos:station:wmo:42048:1,2012-02-01T01:30:00Z,27.9396,-96.8429,2.0,236.4317794,28.61150118,-99999.0,'11111222,11111222,99999999' 
TABS,ioos:station:wmo:42048:1,2012-02-01T02:00:00Z,27.9396,-96.8429,2.0,244.7088131,28.55717773,-99999.0,'11111222,11111222,99999999' 
TABS,ioos:station:wmo:42048:1,2012-02-01T02:30:00Z,27.9396,-96.8429,2.0,247.6828727,27.04576307,-99999.0,'11111222,11111222,99999999' 
TABS,ioos:station:wmo:42048:1,2012-02-01T03:00:00Z,27.9396,-96.8429,2.0,242.8174438,25.32717513,-99999.0,'11111222,11111222,99999999' 
TABS,ioos:station:wmo:42048:1,2012-02-01T03:30:00Z,27.9396,-96.8429,2.0,243.2074529,22.56210318,-99999.0,'11111222,11111222,99999999' 
TABS,ioos:station:wmo:42048:1,2012-02-01T04:00:00Z,27.9396,-96.8429,2.0,238.5404381,19.23771556,-99999.0,'11111222,11111222,99999999' 
TABS,ioos:station:wmo:42048:1,2012-02-01T04:30:00Z,27.9396,-96.8429,2.0,234.0244573,18.57226427,-99999.0,'11111222,11111222,99999999' 
TABS,ioos:station:wmo:42048:1,2012-02-01T05:00:00Z,27.9396,-96.8429,2.0,231.352787,20.76798738,-99999.0,'11111222,11111222,99999999' 
TABS,ioos:station:wmo:42048:1,2012-02-01T05:30:00Z,27.9396,-96.8429,2.0,229.0378452,20.68472867,-99999.0,'11111222,11111222,99999999' 
TABS,ioos:station:wmo:42048:1,2012-02-01T06:00:00Z,27.9396,-96.8429,2.0,231.3200306,18.04900274,-99999.0,'11111222,11111222,99999999' 
TABS,ioos:station:wmo:42048:1,2012-02-01T06:30:00Z,27.9396,-96.8429,2.0,231.8723061,18.3184115,-99999.0,'11111222,11111222,99999999' 
TABS,ioos:station:wmo:42048:1,2012-02-01T07:00:00Z,27.9396,-96.8429,2.0,220.524386,17.03664873,-99999.0,'11111222,11111222,99999999' 
TABS,ioos:station:wmo:42048:1,2012-02-01T07:30:00Z,27.9396,-96.8429,2.0,213.4785511,18.05561409,-99999.0,'11111222,11111222,99999999' 
TABS,ioos:station:wmo:42048:1,2012-02-01T08:00:00Z,27.9396,-96.8429,2.0,210.2536734,16.61262773,-99999.0,'11111222,11111222,99999999' 
TABS,ioos:station:wmo:42048:1,2012-02-01T08:30:00Z,27.9396,-96.8429,2.0,217.1106269,16.64014723,-99999.0,'11111222,11111222,99999999' 
TABS,ioos:station:wmo:42048:1,2012-02-01T09:00:00Z,27.9396,-96.8429,2.0,216.7907998,15.99601513,-99999.0,'11111222,11111222,99999999' 
TABS,ioos:station:wmo:42048:1,2012-02-01T09:30:00Z,27.9396,-96.8429,2.0,208.8553833,16.22445685,-99999.0,'11111222,11111222,99999999' 
TABS,ioos:station:wmo:42048:1,2012-02-01T10:00:00Z,27.9396,-96.8429,2.0,203.7650298,15.93087568,-99999.0,'11111222,11111222,99999999' 
TABS,ioos:station:wmo:42048:1,2012-02-01T10:30:00Z,27.9396,-96.8429,2.0,206.0825772,17.5358661,-99999.0,'11111222,11111222,99999999' 
TABS,ioos:station:wmo:42048:1,2012-02-01T11:00:00Z,27.9396,-96.8429,2.0,196.6793055,16.72364793,-99999.0,'11111222,11111222,99999999' 
TABS,ioos:station:wmo:42048:1,2012-02-01T11:30:00Z,27.9396,-96.8429,2.0,199.5594818,14.33736726,-99999.0,'11111222,11111222,99999999' 
TABS,ioos:station:wmo:42048:1,2012-02-01T12:00:00Z,27.9396,-96.8429,2.0,206.0486156,14.89281706,-99999.0,'11111222,11111222,99999999' 
TABS,ioos:station:wmo:42048:1,2012-02-01T12:30:00Z,27.9396,-96.8429,2.0,201.9843524,15.68019451,-99999.0,'11111222,11111222,99999999' 
TABS,ioos:station:wmo:42048:1,2012-02-01T13:00:00Z,27.9396,-96.8429,2.0,202.3835408,16.9901442,-99999.0,'11111222,11111222,99999999' 
TABS,ioos:station:wmo:42048:1,2012-02-01T13:30:00Z,27.9396,-96.8429,2.0,210.8092116,15.28743929,-99999.0,'11111222,11111222,99999999' 
TABS,ioos:station:wmo:42048:1,2012-02-01T14:00:00Z,27.9396,-96.8429,2.0,210.6908989,14.41976421,-99999.0,'11111222,11111222,99999999' 
TABS,ioos:station:wmo:42048:1,2012-02-01T14:30:00Z,27.9396,-96.8429,2.0,205.9460997,13.66764427,-99999.0,'11111222,11111222,99999999' 
TABS,ioos:station:wmo:42048:1,2012-02-01T15:00:00Z,27.9396,-96.8429,2.0,213.5294551,15.8589407,-99999.0,'11111222,11111222,99999999' 
TABS,ioos:station:wmo:42048:1,2012-02-01T15:30:00Z,27.9396,-96.8429,2.0,213.9846884,13.47107271,-99999.0,'11111222,11111222,99999999' 
TABS,ioos:station:wmo:42048:1,2012-02-01T16:00:00Z,27.9396,-96.8429,2.0,214.9036679,14.92478476,-99999.0,'11111222,11111222,99999999' 
TABS,ioos:station:wmo:42048:1,2012-02-01T16:30:00Z,27.9396,-96.8429,2.0,212.7558679,14.80414131,-99999.0,'11111222,11111222,99999999' 
TABS,ioos:station:wmo:42048:1,2012-02-01T17:00:00Z,27.9396,-96.8429,2.0,212.0129124,15.54380906,-99999.0,'11111222,11111222,99999999' 
TABS,ioos:station:wmo:42048:1,2012-02-01T17:30:00Z,27.9396,-96.8429,2.0,212.5990242,16.46371161,-99999.0,'11111222,11111222,99999999' 
TABS,ioos:station:wmo:42048:1,2012-02-01T18:00:00Z,27.9396,-96.8429,2.0,214.5843676,17.05356268,-99999.0,'11111222,11111222,99999999' 
TABS,ioos:station:wmo:42048:1,2012-02-01T18:30:00Z,27.9396,-96.8429,2.0,218.8137598,14.50234809,-99999.0,'11111222,11111222,99999999' 
TABS,ioos:station:wmo:42048:1,2012-02-01T19:00:00Z,27.9396,-96.8429,2.0,218.1838362,16.74240425,-99999.0,'11111222,11111222,99999999' 
TABS,ioos:station:wmo:42048:1,2012-02-01T19:30:00Z,27.9396,-96.8429,2.0,216.3450924,16.8227049,-99999.0,'11111222,11111222,99999999' 
TABS,ioos:station:wmo:42048:1,2012-02-01T20:00:00Z,27.9396,-96.8429,2.0,205.931622,17.40214355,-99999.0,'11111222,11111222,99999999' 
TABS,ioos:station:wmo:42048:1,2012-02-01T20:30:00Z,27.9396,-96.8429,2.0,204.0860627,16.44153886,-99999.0,'11111222,11111222,99999999' 
TABS,ioos:station:wmo:42048:1,2012-02-01T21:00:00Z,27.9396,-96.8429,2.0,205.5263006,14.80520179,-99999.0,'11111222,11111222,99999999' 
TABS,ioos:station:wmo:42048:1,2012-02-01T21:30:00Z,27.9396,-96.8429,2.0,197.0524948,17.69809312,-99999.0,'11111222,11111222,99999999' 
TABS,ioos:station:wmo:42048:1,2012-02-01T22:00:00Z,27.9396,-96.8429,2.0,193.9732792,17.7245141,-99999.0,'11111222,11111222,99999999' 
TABS,ioos:station:wmo:42048:1,2012-02-01T22:30:00Z,27.9396,-96.8429,2.0,192.2645346,19.53587981,-99999.0,'11111222,11111222,99999999' 
TABS,ioos:station:wmo:42048:1,2012-02-01T23:00:00Z,27.9396,-96.8429,2.0,190.8605788,21.0164507,-99999.0,'11111222,11111222,99999999' 
TABS,ioos:station:wmo:42048:1,2012-02-01T23:30:00Z,27.9396,-96.8429,2.0,188.0867683,16.91824163,-99999.0,'11111222,11111222,99999999' 
TABS,ioos:station:wmo:42048:1,2012-02-02T00:00:00Z,27.9396,-96.8429,2.0,210.4359236,18.81247724,-99999.0,'11111222,11111222,99999999' 
TABS,ioos:station:wmo:42048:1,2012-02-02T00:30:00Z,27.9396,-96.8429,2.0,221.2259004,14.71852234,-99999.0,'11111222,11111222,99999999' 
TABS,ioos:station:wmo:42048:1,2012-02-02T01:00:00Z,27.9396,-96.8429,2.0,224.5327375,17.35297669,-99999.0,'11111222,11111222,99999999' 
TABS,ioos:station:wmo:42048:1,2012-02-02T01:30:00Z,27.9396,-96.8429,2.0,216.4689387,15.73038461,-99999.0,'11111222,11111222,99999999' 
TABS,ioos:station:wmo:42048:1,2012-02-02T02:00:00Z,27.9396,-96.8429,2.0,230.9088888,18.06356831,-99999.0,'11111222,11111222,99999999' 
TABS,ioos:station:wmo:42048:1,2012-02-02T02:30:00Z,27.9396,-96.8429,2.0,236.9058264,20.25597443,-99999.0,'11111222,11111222,99999999' 
TABS,ioos:station:wmo:42048:1,2012-02-02T03:00:00Z,27.9396,-96.8429,2.0,228.3259114,20.10863745,-99999.0,'11111222,11111222,99999999' 
TABS,ioos:station:wmo:42048:1,2012-02-02T03:30:00Z,27.9396,-96.8429,2.0,226.1435063,20.89916984,-99999.0,'11111222,11111222,99999999' 
TABS,ioos:station:wmo:42048:1,2012-02-02T04:00:00Z,27.9396,-96.8429,2.0,227.7576722,21.89617547,-99999.0,'11111222,11111222,99999999' 
TABS,ioos:station:wmo:42048:1,2012-02-02T04:30:00Z,27.9396,-96.8429,2.0,231.111008,20.72286177,-99999.0,'11111222,11111222,99999999' 
TABS,ioos:station:wmo:42048:1,2012-02-02T05:00:00Z,27.9396,-96.8429,2.0,230.1695918,20.95195695,-99999.0,'11111222,11111222,99999999' 
TABS,ioos:station:wmo:42048:1,2012-02-02T05:30:00Z,27.9396,-96.8429,2.0,230.8085706,18.86347794,-99999.0,'11111222,11111222,99999999' 
TABS,ioos:station:wmo:42048:1,2012-02-02T06:00:00Z,27.9396,-96.8429,2.0,238.1738077,20.97322102,-99999.0,'11111222,11111222,99999999' 
TABS,ioos:station:wmo:42048:1,2012-02-02T06:30:00Z,27.9396,-96.8429,2.0,228.4159635,20.05383006,-99999.0,'11111222,11111222,99999999' 
TABS,ioos:station:wmo:42048:1,2012-02-02T07:00:00Z,27.9396,-96.8429,2.0,229.7613099,16.78099222,-99999.0,'11111222,11111222,99999999' 
TABS,ioos:station:wmo:42048:1,2012-02-02T07:30:00Z,27.9396,-96.8429,2.0,230.9119927,17.98547191,-99999.0,'11111222,11111222,99999999' 
TABS,ioos:station:wmo:42048:1,2012-02-02T08:00:00Z,27.9396,-96.8429,2.0,237.4985745,17.643265,-99999.0,'11111222,11111222,99999999' 
TABS,ioos:station:wmo:42048:1,2012-02-02T08:30:00Z,27.9396,-96.8429,2.0,233.3624619,15.2661259,-99999.0,'11111222,11111222,99999999' 
TABS,ioos:station:wmo:42048:1,2012-02-02T09:00:00Z,27.9396,-96.8429,2.0,233.0164093,16.17403166,-99999.0,'11111222,11111222,99999999' 
TABS,ioos:station:wmo:42048:1,2012-02-02T09:30:00Z,27.9396,-96.8429,2.0,229.1515665,16.11482857,-99999.0,'11111222,11111222,99999999' 
TABS,ioos:station:wmo:42048:1,2012-02-02T10:00:00Z,27.9396,-96.8429,2.0,231.4405006,16.89334188,-99999.0,'11111222,11111222,99999999' 
TABS,ioos:station:wmo:42048:1,2012-02-02T10:30:00Z,27.9396,-96.8429,2.0,231.4373396,16.52320792,-99999.0,'11111222,11111222,99999999' 
TABS,ioos:station:wmo:42048:1,2012-02-02T11:00:00Z,27.9396,-96.8429,2.0,226.914786,15.86926904,-99999.0,'11111222,11111222,99999999' 
TABS,ioos:station:wmo:42048:1,2012-02-02T11:30:00Z,27.9396,-96.8429,2.0,219.2941203,16.07438957,-99999.0,'11111222,11111222,99999999' 
TABS,ioos:station:wmo:42048:1,2012-02-02T12:00:00Z,27.9396,-96.8429,2.0,224.0012,27.99860889,-99999.0,'11111222,11111222,99999999' 
TABS,ioos:station:wmo:42048:1,2012-02-02T12:30:00Z,27.9396,-96.8429,2.0,219.6688713,16.13525333,-99999.0,'11111222,11111222,99999999' 
TABS,ioos:station:wmo:42048:1,2012-02-02T13:00:00Z,27.9396,-96.8429,2.0,217.36494,17.3506484,-99999.0,'11111222,11111222,99999999' 
TABS,ioos:station:wmo:42048:1,2012-02-02T13:30:00Z,27.9396,-96.8429,2.0,216.8243035,20.23800632,-99999.0,'11111222,11111222,99999999' 
TABS,ioos:station:wmo:42048:1,2012-02-02T14:00:00Z,27.9396,-96.8429,2.0,220.3897068,19.70718143,-99999.0,'11111222,11111222,99999999' 
TABS,ioos:station:wmo:42048:1,2012-02-02T14:30:00Z,27.9396,-96.8429,2.0,220.6936069,21.47180477,-99999.0,'11111222,11111222,99999999' 
TABS,ioos:station:wmo:42048:1,2012-02-02T15:00:00Z,27.9396,-96.8429,2.0,221.1578062,21.31767811,-99999.0,'11111222,11111222,99999999' 
TABS,ioos:station:wmo:42048:1,2012-02-02T15:30:00Z,27.9396,-96.8429,2.0,225.7756094,22.45269917,-99999.0,'11111222,11111222,99999999' 
TABS,ioos:station:wmo:42048:1,2012-02-02T16:00:00Z,27.9396,-96.8429,2.0,222.5040319,23.05941023,-99999.0,'11111222,11111222,99999999' 
TABS,ioos:station:wmo:42048:1,2012-02-02T16:30:00Z,27.9396,-96.8429,2.0,222.3139729,22.78679662,-99999.0,'11111222,11111222,99999999' 
TABS,ioos:station:wmo:42048:1,2012-02-02T17:00:00Z,27.9396,-96.8429,2.0,216.1870712,23.16964393,-99999.0,'11111222,11111222,99999999' 
TABS,ioos:station:wmo:42048:1,2012-02-02T17:30:00Z,27.9396,-96.8429,2.0,216.462236,23.91060434,-99999.0,'11111222,11111222,99999999' 
TABS,ioos:station:wmo:42048:1,2012-02-02T18:00:00Z,27.9396,-96.8429,2.0,218.6555349,22.52494173,-99999.0,'11111222,11111222,99999999' 
TABS,ioos:station:wmo:42048:1,2012-02-02T18:30:00Z,27.9396,-96.8429,2.0,211.2856214,22.87655787,-99999.0,'11111222,11111222,99999999' 
TABS,ioos:station:wmo:42048:1,2012-02-02T19:00:00Z,27.9396,-96.8429,2.0,216.4731142,23.98857436,-99999.0,'11111222,11111222,99999999' 
TABS,ioos:station:wmo:42048:1,2012-02-02T19:30:00Z,27.9396,-96.8429,2.0,218.6231915,24.63953936,-99999.0,'11111222,11111222,99999999' 
TABS,ioos:station:wmo:42048:1,2012-02-02T20:00:00Z,27.9396,-96.8429,2.0,214.8233132,23.13275167,-99999.0,'11111222,11111222,99999999' 
TABS,ioos:station:wmo:42048:1,2012-02-02T20:30:00Z,27.9396,-96.8429,2.0,213.1396137,24.84061996,-99999.0,'11111222,11111222,99999999' 
TABS,ioos:station:wmo:42048:1,2012-02-02T21:00:00Z,27.9396,-96.8429,2.0,206.7941994,25.68815486,-99999.0,'11111222,11111222,99999999' 
TABS,ioos:station:wmo:42048:1,2012-02-02T21:30:00Z,27.9396,-96.8429,2.0,212.0510369,25.11877784,-99999.0,'11111222,11111222,99999999' 
TABS,ioos:station:wmo:42048:1,2012-02-02T22:00:00Z,27.9396,-96.8429,2.0,206.3044367,25.5898261,-99999.0,'11111222,11111222,99999999' 
TABS,ioos:station:wmo:42048:1,2012-02-02T22:30:00Z,27.9396,-96.8429,2.0,205.0782929,24.13529573,-99999.0,'11111222,11111222,99999999' 
TABS,ioos:station:wmo:42048:1,2012-02-02T23:00:00Z,27.9396,-96.8429,2.0,208.7888369,24.31543131,-99999.0,'11111222,11111222,99999999' 
TABS,ioos:station:wmo:42048:1,2012-02-02T23:30:00Z,27.9396,-96.8429,2.0,209.7357816,24.17312971,-99999.0,'11111222,11111222,99999999' 
TABS,ioos:station:wmo:42048:1,2012-02-03T00:00:00Z,27.9396,-96.8429,2.0,212.8572154,22.52320581,-99999.0,'11111222,11111222,99999999' 
TABS,ioos:station:wmo:42048:1,2012-02-03T00:30:00Z,27.9396,-96.8429,2.0,230.0351075,25.37700731,-99999.0,'11111222,11111222,99999999' 
TABS,ioos:station:wmo:42048:1,2012-02-03T01:00:00Z,27.9396,-96.8429,2.0,233.0382046,25.03003196,-99999.0,'11111222,11111222,99999999' 
TABS,ioos:station:wmo:42048:1,2012-02-03T01:30:00Z,27.9396,-96.8429,2.0,231.0444283,28.47085527,-99999.0,'11111222,11111222,99999999' 
TABS,ioos:station:wmo:42048:1,2012-02-03T02:00:00Z,27.9396,-96.8429,2.0,230.981368,27.95565059,-99999.0,'11111222,11111222,99999999' 
TABS,ioos:station:wmo:42048:1,2012-02-03T02:30:00Z,27.9396,-96.8429,2.0,233.2118531,27.92002865,-99999.0,'11111222,11111222,99999999' 
TABS,ioos:station:wmo:42048:1,2012-02-03T03:00:00Z,27.9396,-96.8429,2.0,233.2885438,30.31211639,-99999.0,'11111222,11111222,99999999' 
TABS,ioos:station:wmo:42048:1,2012-02-03T03:30:00Z,27.9396,-96.8429,2.0,233.2162135,31.81403621,-99999.0,'11111222,11111222,99999999' 
TABS,ioos:station:wmo:42048:1,2012-02-03T04:00:00Z,27.9396,-96.8429,2.0,231.418456,31.87821827,-99999.0,'11111222,11111222,99999999' 
TABS,ioos:station:wmo:42048:1,2012-02-03T04:30:00Z,27.9396,-96.8429,2.0,222.4508675,29.09794666,-99999.0,'11111222,11111222,99999999' 
TABS,ioos:station:wmo:42048:1,2012-02-03T05:00:00Z,27.9396,-96.8429,2.0,222.168274,26.7683862,-99999.0,'11111222,11111222,99999999' 
TABS,ioos:station:wmo:42048:1,2012-02-03T05:30:00Z,27.9396,-96.8429,2.0,220.8000052,29.35303732,-99999.0,'11111222,11111222,99999999' 
TABS,ioos:station:wmo:42048:1,2012-02-03T06:00:00Z,27.9396,-96.8429,2.0,224.9714876,28.73682307,-99999.0,'11111222,11111222,99999999' 
TABS,ioos:station:wmo:42048:1,2012-02-03T06:30:00Z,27.9396,-96.8429,2.0,221.1894127,28.41071101,-99999.0,'11111222,11111222,99999999' 
TABS,ioos:station:wmo:42048:1,2012-02-03T07:00:00Z,27.9396,-96.8429,2.0,222.0155449,28.25187073,-99999.0,'11111222,11111222,99999999' 
TABS,ioos:station:wmo:42048:1,2012-02-03T07:30:00Z,27.9396,-96.8429,2.0,215.8998768,28.480079,-99999.0,'11111222,11111222,99999999' 
TABS,ioos:station:wmo:42048:1,2012-02-03T08:00:00Z,27.9396,-96.8429,2.0,217.1492434,29.09434653,-99999.0,'11111222,11111222,99999999' 
TABS,ioos:station:wmo:42048:1,2012-02-03T08:30:00Z,27.9396,-96.8429,2.0,218.1503878,29.52737713,-99999.0,'11111222,11111222,99999999' 
TABS,ioos:station:wmo:42048:1,2012-02-03T09:00:00Z,27.9396,-96.8429,2.0,215.922986,28.32786614,-99999.0,'11111222,11111222,99999999' 
TABS,ioos:station:wmo:42048:1,2012-02-03T09:30:00Z,27.9396,-96.8429,2.0,218.2297828,29.15221432,-99999.0,'11111222,11111222,99999999' 
TABS,ioos:station:wmo:42048:1,2012-02-03T10:00:00Z,27.9396,-96.8429,2.0,219.6923699,29.89026765,-99999.0,'11111222,11111222,99999999' 
TABS,ioos:station:wmo:42048:1,2012-02-03T10:30:00Z,27.9396,-96.8429,2.0,221.7468318,30.15719483,-99999.0,'11111222,11111222,99999999' 
TABS,ioos:station:wmo:42048:1,2012-02-03T11:00:00Z,27.9396,-96.8429,2.0,217.9940242,32.00216243,-99999.0,'11111222,11111222,99999999' 
TABS,ioos:station:wmo:42048:1,2012-02-03T11:30:00Z,27.9396,-96.8429,2.0,222.631519,31.31622104,-99999.0,'11111222,11111222,99999999' 
TABS,ioos:station:wmo:42048:1,2012-02-03T12:00:00Z,27.9396,-96.8429,2.0,226.628781,27.85712476,-99999.0,'11111222,11111222,99999999' 
TABS,ioos:station:wmo:42048:1,2012-02-03T12:30:00Z,27.9396,-96.8429,2.0,223.5253909,30.23175152,-99999.0,'11111222,11111222,99999999' 
TABS,ioos:station:wmo:42048:1,2012-02-03T13:00:00Z,27.9396,-96.8429,2.0,222.5149594,29.19560412,-99999.0,'11111222,11111222,99999999' 
TABS,ioos:station:wmo:42048:1,2012-02-03T13:30:00Z,27.9396,-96.8429,2.0,223.2998628,31.46595621,-99999.0,'11111222,11111222,99999999' 
TABS,ioos:station:wmo:42048:1,2012-02-03T14:00:00Z,27.9396,-96.8429,2.0,222.2438516,31.3257035,-99999.0,'11111222,11111222,99999999' 
TABS,ioos:station:wmo:42048:1,2012-02-03T14:30:00Z,27.9396,-96.8429,2.0,218.1838247,29.90986794,-99999.0,'11111222,11111222,99999999' 
TABS,ioos:station:wmo:42048:1,2012-02-03T15:00:00Z,27.9396,-96.8429,2.0,222.3722819,29.6164819,-99999.0,'11111222,11111222,99999999' 
TABS,ioos:station:wmo:42048:1,2012-02-03T15:30:00Z,27.9396,-96.8429,2.0,229.4065403,30.46029054,-99999.0,'11111222,11111222,99999999' 
TABS,ioos:station:wmo:42048:1,2012-02-03T16:00:00Z,27.9396,-96.8429,2.0,227.7381577,31.67212655,-99999.0,'11111222,11111222,99999999' 
TABS,ioos:station:wmo:42048:1,2012-02-03T16:30:00Z,27.9396,-96.8429,2.0,221.2826534,29.9949279,-99999.0,'11111222,11111222,99999999' 
TABS,ioos:station:wmo:42048:1,2012-02-03T17:00:00Z,27.9396,-96.8429,2.0,226.6491727,30.46064018,-99999.0,'11111222,11111222,99999999' 
TABS,ioos:station:wmo:42048:1,2012-02-03T17:30:00Z,27.9396,-96.8429,2.0,227.5936548,29.99792326,-99999.0,'11111222,11111222,99999999' 
TABS,ioos:station:wmo:42048:1,2012-02-03T18:00:00Z,27.9396,-96.8429,2.0,228.3249646,28.8915299,-99999.0,'11111222,11111222,99999999' 
TABS,ioos:station:wmo:42048:1,2012-02-03T18:30:00Z,27.9396,-96.8429,2.0,231.0101933,27.95712789,-99999.0,'11111222,11111222,99999999' 
TABS,ioos:station:wmo:42048:1,2012-02-03T19:00:00Z,27.9396,-96.8429,2.0,234.5150136,27.63207556,-99999.0,'11111222,11111222,99999999' 
TABS,ioos:station:wmo:42048:1,2012-02-03T19:30:00Z,27.9396,-96.8429,2.0,233.3704214,29.04625621,-99999.0,'11111222,11111222,99999999' 
TABS,ioos:station:wmo:42048:1,2012-02-03T20:00:00Z,27.9396,-96.8429,2.0,230.9323989,26.13321641,-99999.0,'11111222,11111222,99999999' 
TABS,ioos:station:wmo:42048:1,2012-02-03T20:30:00Z,27.9396,-96.8429,2.0,233.0879308,27.3900073,-99999.0,'11111222,11111222,99999999' 
TABS,ioos:station:wmo:42048:1,2012-02-03T21:00:00Z,27.9396,-96.8429,2.0,235.3709749,27.25885177,-99999.0,'11111222,11111222,99999999' 
TABS,ioos:station:wmo:42048:1,2012-02-03T21:30:00Z,27.9396,-96.8429,2.0,235.901843,25.72209945,-99999.0,'11111222,11111222,99999999' 
TABS,ioos:station:wmo:42048:1,2012-02-03T22:00:00Z,27.9396,-96.8429,2.0,229.9647295,26.22600427,-99999.0,'11111222,11111222,99999999' 
TABS,ioos:station:wmo:42048:1,2012-02-03T22:30:00Z,27.9396,-96.8429,2.0,233.4917197,26.91053697,-99999.0,'11111222,11111222,99999999' 
TABS,ioos:station:wmo:42048:1,2012-02-03T23:00:00Z,27.9396,-96.8429,2.0,228.2103609,28.40664183,-99999.0,'11111222,11111222,99999999' 
TABS,ioos:station:wmo:42048:1,2012-02-03T23:30:00Z,27.9396,-96.8429,2.0,233.3832295,26.674261,-99999.0,'11111222,11111222,99999999' 
TABS,ioos:station:wmo:42048:1,2012-02-04T00:00:00Z,27.9396,-96.8429,2.0,235.1054061,27.84655275,-99999.0,'11111222,11111222,99999999' 
TABS,ioos:station:wmo:42048:1,2012-02-04T00:30:00Z,27.9396,-96.8429,2.0,234.3320403,27.16598056,-99999.0,'11111222,11111222,99999999' 
TABS,ioos:station:wmo:42048:1,2012-02-04T01:00:00Z,27.9396,-96.8429,2.0,231.0559373,26.47333942,-99999.0,'11111222,11111222,99999999' 
TABS,ioos:station:wmo:42048:1,2012-02-04T01:30:00Z,27.9396,-96.8429,2.0,228.0008928,29.44188173,-99999.0,'11111222,11111222,99999999' 
TABS,ioos:station:wmo:42048:1,2012-02-04T02:00:00Z,27.9396,-96.8429,2.0,220.2131477,26.43900528,-99999.0,'11111222,11111222,99999999' 
TABS,ioos:station:wmo:42048:1,2012-02-04T02:30:00Z,27.9396,-96.8429,2.0,224.3996752,27.68474851,-99999.0,'11111222,11111222,99999999' 
TABS,ioos:station:wmo:42048:1,2012-02-04T03:00:00Z,27.9396,-96.8429,2.0,223.9053321,30.72939472,-99999.0,'11111222,11111222,99999999' 
TABS,ioos:station:wmo:42048:1,2012-02-04T03:30:00Z,27.9396,-96.8429,2.0,224.5714737,28.38405891,-99999.0,'11111222,11111222,99999999' 
TABS,ioos:station:wmo:42048:1,2012-02-04T04:00:00Z,27.9396,-96.8429,2.0,225.8415978,29.35517161,-99999.0,'11111222,11111222,99999999' 
TABS,ioos:station:wmo:42048:1,2012-02-04T04:30:00Z,27.9396,-96.8429,2.0,227.5197989,28.78587327,-99999.0,'11111222,11111222,99999999' 
TABS,ioos:station:wmo:42048:1,2012-02-04T05:00:00Z,27.9396,-96.8429,2.0,224.2571103,28.37150683,-99999.0,'11111222,11111222,99999999' 
TABS,ioos:station:wmo:42048:1,2012-02-04T05:30:00Z,27.9396,-96.8429,2.0,218.3183195,29.11130536,-99999.0,'11111222,11111222,99999999' 
TABS,ioos:station:wmo:42048:1,2012-02-04T06:00:00Z,27.9396,-96.8429,2.0,217.3594656,28.77305163,-99999.0,'11111222,11111222,99999999' 
TABS,ioos:station:wmo:42048:1,2012-02-04T06:30:00Z,27.9396,-96.8429,2.0,213.1934175,29.13394755,-99999.0,'11111222,11111222,99999999' 
TABS,ioos:station:wmo:42048:1,2012-02-04T07:00:00Z,27.9396,-96.8429,2.0,215.8853775,27.94412282,-99999.0,'11111222,11111222,99999999' 
TABS,ioos:station:wmo:42048:1,2012-02-04T07:30:00Z,27.9396,-96.8429,2.0,217.3768426,28.46511549,-99999.0,'11111222,11111222,99999999' 
TABS,ioos:station:wmo:42048:1,2012-02-04T08:00:00Z,27.9396,-96.8429,2.0,215.2086251,28.56600252,-99999.0,'11111222,11111222,99999999' 
TABS,ioos:station:wmo:42048:1,2012-02-04T08:30:00Z,27.9396,-96.8429,2.0,212.0428587,28.95066839,-99999.0,'11111222,11111222,99999999' 
TABS,ioos:station:wmo:42048:1,2012-02-04T09:00:00Z,27.9396,-96.8429,2.0,218.0495291,28.16597238,-99999.0,'11111222,11111222,99999999' 
TABS,ioos:station:wmo:42048:1,2012-02-04T09:30:00Z,27.9396,-96.8429,2.0,215.8801372,28.95431747,-99999.0,'11111222,11111222,99999999' 
TABS,ioos:station:wmo:42048:1,2012-02-04T10:00:00Z,27.9396,-96.8429,2.0,220.1180895,31.65887079,-99999.0,'11111222,11111222,99999999' 
TABS,ioos:station:wmo:42048:1,2012-02-04T10:30:00Z,27.9396,-96.8429,2.0,220.3663449,30.9876911,-99999.0,'11111222,11111222,99999999' 
TABS,ioos:station:wmo:42048:1,2012-02-04T11:00:00Z,27.9396,-96.8429,2.0,219.8325479,32.26913851,-99999.0,'11111222,11111222,99999999' 
TABS,ioos:station:wmo:42048:1,2012-02-04T11:30:00Z,27.9396,-96.8429,2.0,214.7362668,33.25705038,-99999.0,'11111222,11111222,99999999' 
TABS,ioos:station:wmo:42048:1,2012-02-04T12:00:00Z,27.9396,-96.8429,2.0,221.2766271,33.75781095,-99999.0,'11111222,11111222,99999999' 
TABS,ioos:station:wmo:42048:1,2012-02-04T12:30:00Z,27.9396,-96.8429,2.0,237.3949409,35.87335083,-99999.0,'11111222,11111222,99999999' 
TABS,ioos:station:wmo:42048:1,2012-02-04T13:00:00Z,27.9396,-96.8429,2.0,235.7206363,35.61640774,-99999.0,'11111222,11111222,99999999' 
TABS,ioos:station:wmo:42048:1,2012-02-04T13:30:00Z,27.9396,-96.8429,2.0,236.5425929,34.10047654,-99999.0,'11111222,11111222,99999999' 
TABS,ioos:station:wmo:42048:1,2012-02-04T14:00:00Z,27.9396,-96.8429,2.0,234.3843702,32.60981754,-99999.0,'11111222,11111222,99999999' 
TABS,ioos:station:wmo:42048:1,2012-02-04T14:30:00Z,27.9396,-96.8429,2.0,238.5806363,36.04499549,-99999.0,'11111222,11111222,99999999' 
TABS,ioos:station:wmo:42048:1,2012-02-04T15:00:00Z,27.9396,-96.8429,2.0,233.2005984,35.5920272,-99999.0,'11111222,11111222,99999999' 
TABS,ioos:station:wmo:42048:1,2012-02-04T15:30:00Z,27.9396,-96.8429,2.0,238.4167679,42.69363536,-99999.0,'11111222,11111222,99999999' 
TABS,ioos:station:wmo:42048:1,2012-02-04T16:00:00Z,27.9396,-96.8429,2.0,235.0661526,37.70353034,-99999.0,'11111222,11111222,99999999' 